| time (UTC) | temp C | wind direction | speed KPH | gust KPH | rain 1hr cm | rain 24hr cm | rain mn cm | humidity % | barometer mb |
| 20260510033624 | 15 | 152 | 0.0 | 3.2 | 0.00 | 0.03 | 0.03 | 74 | 1030.1 |
| 20260510032703 | 14 | 159 | 1.6 | 4.8 | 0.00 | 0.03 | 0.03 | 76 | 1030.4 |
| 20260510031803 | 14 | 223 | 0.0 | 6.4 | 0.00 | 0.03 | 0.03 | 75 | 1030.5 |
| 20260510030924 | 14 | 314 | 0.0 | 4.8 | 0.00 | 0.03 | 0.03 | 78 | 1030.5 |
| 20260510030004 | 15 | 209 | 0.0 | 3.2 | 0.00 | 0.03 | 0.03 | 76 | 1030.5 |
| 20260510025403 | 15 | 235 | 0.0 | 3.2 | 0.00 | 0.03 | 0.03 | 77 | 1030.6 |
| 20260510024503 | 15 | 267 | 0.0 | 3.2 | 0.00 | 0.03 | 0.03 | 77 | 1030.6 |
| 20260510023603 | 15 | 215 | 0.0 | 3.2 | 0.00 | 0.03 | 0.03 | 76 | 1030.7 |
| 20260510022704 | 15 | 222 | 0.0 | 3.2 | 0.00 | 0.03 | 0.03 | 77 | 1030.7 |
| 20260510021825 | 15 | 224 | 0.0 | 6.4 | 0.00 | 0.03 | 0.03 | 78 | 1030.8 |
| 20260510020904 | 15 | 258 | 0.0 | 6.4 | 0.00 | 0.03 | 0.03 | 76 | 1030.9 |
| 20260510020005 | 15 | 217 | 0.0 | 3.2 | 0.00 | 0.03 | 0.03 | 78 | 1031.1 |
| 20260510015404 | 14 | 166 | 0.0 | 1.6 | 0.00 | 0.03 | 0.03 | 80 | 1031.1 |
| 20260510014504 | 13 | 164 | 0.0 | 3.2 | 0.00 | 0.03 | 0.03 | 79 | 1031.3 |
| 20260510013625 | 14 | 249 | 0.0 | 3.2 | 0.00 | 0.03 | 0.03 | 82 | 1031.3 |
| 20260510012704 | 13 | 324 | 0.0 | 3.2 | 0.00 | 0.03 | 0.03 | 81 | 1031.3 |
| 20260510011825 | 13 | 184 | 0.0 | 3.2 | 0.00 | 0.03 | 0.03 | 82 | 1031.3 |
| 20260510010904 | 13 | 36 | 0.0 | 1.6 | 0.00 | 0.03 | 0.03 | 83 | 1031.6 |
| 20260510010025 | 13 | 22 | 0.0 | 3.2 | 0.00 | 0.03 | 0.03 | 82 | 1031.5 |
| 20260510005404 | 13 | 213 | 0.0 | 3.2 | 0.00 | 0.03 | 0.03 | 82 | 1031.4 |
| 20260510004525 | 13 | 216 | 0.0 | 4.8 | 0.00 | 0.03 | 0.03 | 83 | 1031.6 |
| 20260510003604 | 13 | 182 | 1.6 | 3.2 | 0.00 | 0.03 | 0.03 | 81 | 1031.4 |
| 20260510002704 | 13 | 194 | 0.0 | 3.2 | 0.00 | 0.03 | 0.03 | 83 | 1031.5 |
| 20260510001825 | 13 | 195 | 0.0 | 3.2 | 0.00 | 0.03 | 0.03 | 83 | 1031.1 |
| 20260510000904 | 13 | 206 | 0.0 | 1.6 | 0.00 | 0.03 | 0.03 | 86 | 1031.4 |
| 20260510000004 | 13 | 207 | 0.0 | 3.2 | 0.00 | 0.03 | 0.03 | 87 | 1031.3 |
| 20260509235404 | 13 | 209 | 0.0 | 3.2 | 0.00 | 0.03 | 0.03 | 89 | 1031.3 |
| 20260509234504 | 12 | 292 | 0.0 | 3.2 | 0.00 | 0.03 | 0.03 | 90 | 1031.3 |
| 20260509233604 | 12 | 300 | 0.0 | 1.6 | 0.00 | 0.03 | 0.03 | 91 | 1031.4 |
| 20260509232704 | 12 | 273 | 0.0 | 1.6 | 0.00 | 0.03 | 0.03 | 92 | 1031.4 |
| 20260509231804 | 12 | 271 | 0.0 | 1.6 | 0.00 | 0.03 | 0.03 | 93 | 1031.5 |
| 20260509230904 | 12 | 240 | 0.0 | 1.6 | 0.00 | 0.03 | 0.03 | 94 | 1031.5 |
| 20260509230009 | 12 | 144 | 0.0 | 1.6 | 0.00 | 0.03 | 0.03 | 95 | 1031.4 |
| 20260509225425 | 12 | 0 | 0.0 | 0.0 | 0.00 | 0.03 | 0.03 | 96 | 1031.5 |
| 20260509224504 | 11 | 0 | 0.0 | 0.0 | 0.00 | 0.03 | 0.03 | 97 | 1031.5 |
| 20260509223604 | 11 | 0 | 0.0 | 0.0 | 0.00 | 0.03 | 0.03 | 98 | 1031.4 |
| 20260509222704 | 11 | 0 | 0.0 | 0.0 | 0.00 | 0.03 | 0.03 | 99 | 1031.2 |
| 20260509221804 | 11 | 0 | 0.0 | 0.0 | 0.00 | 0.03 | 0.03 | 99 | 1031.3 |
| 20260509220904 | 11 | 0 | 0.0 | 0.0 | 0.00 | 0.03 | 0.03 | 99 | 1031.0 |
| 20260509220004 | 11 | 0 | 0.0 | 0.0 | 0.00 | 0.03 | 0.03 | 99 | 1030.7 |
| 20260509215404 | 11 | 0 | 0.0 | 0.0 | 0.00 | 0.03 | 0.03 | 99 | 1030.8 |
| 20260509214504 | 11 | 0 | 0.0 | 0.0 | 0.00 | 0.03 | 0.03 | 99 | 1030.4 |
| 20260509213604 | 11 | 172 | 0.0 | 1.6 | 0.00 | 0.03 | 0.03 | 99 | 1030.6 |
| 20260509212725 | 11 | 0 | 0.0 | 0.0 | 0.00 | 0.03 | 0.03 | 99 | 1030.4 |
| 20260509211804 | 11 | 0 | 0.0 | 0.0 | 0.00 | 0.03 | 0.03 | 99 | 1030.5 |
| 20260509210904 | 11 | 0 | 0.0 | 0.0 | 0.00 | 0.03 | 0.03 | 99 | 1030.4 |
| 20260509210025 | 11 | 0 | 0.0 | 0.0 | 0.00 | 0.05 | 0.03 | 99 | 1030.3 |
| 20260509205404 | 11 | 0 | 0.0 | 0.0 | 0.00 | 0.08 | 0.03 | 99 | 1030.1 |
| 20260509204504 | 11 | 0 | 0.0 | 0.0 | 0.00 | 0.08 | 0.03 | 99 | 1029.8 |
| 20260509203603 | 11 | 122 | 0.0 | 1.6 | 0.00 | 0.08 | 0.03 | 99 | 1030.0 |
| 20260509202703 | 11 | 123 | 0.0 | 1.6 | 0.00 | 0.10 | 0.03 | 99 | 1030.0 |
| 20260509201803 | 11 | 0 | 0.0 | 0.0 | 0.00 | 0.15 | 0.03 | 99 | 1029.9 |
| 20260509200903 | 11 | 132 | 0.0 | 1.6 | 0.00 | 0.20 | 0.03 | 99 | 1029.7 |
| 20260509200004 | 11 | 0 | 0.0 | 0.0 | 0.00 | 0.25 | 0.03 | 99 | 1029.6 |
| 20260509195424 | 11 | 234 | 0.0 | 1.6 | 0.00 | 0.25 | 0.03 | 99 | 1029.4 |
| 20260509194504 | 10 | 187 | 0.0 | 3.2 | 0.00 | 0.30 | 0.03 | 99 | 1029.7 |
| 20260509193603 | 10 | 165 | 0.0 | 3.2 | 0.00 | 0.30 | 0.03 | 99 | 1029.5 |
| 20260509192703 | 10 | 157 | 0.0 | 3.2 | 0.00 | 0.33 | 0.03 | 99 | 1029.3 |
| 20260509191824 | 10 | 143 | 0.0 | 3.2 | 0.00 | 0.33 | 0.03 | 99 | 1029.3 |
| 20260509190903 | 10 | 199 | 0.0 | 4.8 | 0.00 | 0.36 | 0.03 | 99 | 1029.3 |
| 20260509190004 | 10 | 185 | 0.0 | 3.2 | 0.00 | 0.43 | 0.03 | 99 | 1029.0 |
| 20260509185404 | 10 | 188 | 0.0 | 4.8 | 0.00 | 0.43 | 0.03 | 99 | 1029.2 |
| 20260509184504 | 10 | 146 | 0.0 | 4.8 | 0.00 | 0.43 | 0.03 | 99 | 1028.7 |
| 20260509183625 | 10 | 149 | 0.0 | 1.6 | 0.00 | 0.43 | 0.03 | 99 | 1029.0 |
| 20260509182704 | 10 | 0 | 0.0 | 0.0 | 0.00 | 0.48 | 0.03 | 99 | 1029.0 |
| 20260509181804 | 11 | 0 | 0.0 | 0.0 | 0.00 | 0.51 | 0.03 | 99 | 1028.7 |
| 20260509180904 | 11 | 129 | 0.0 | 1.6 | 0.00 | 0.56 | 0.03 | 99 | 1028.6 |
| 20260509180004 | 11 | 135 | 0.0 | 1.6 | 0.00 | 0.58 | 0.03 | 99 | 1028.5 |
| 20260509175403 | 11 | 138 | 0.0 | 1.6 | 0.00 | 0.64 | 0.03 | 99 | 1028.7 |
| 20260509174503 | 11 | 138 | 0.0 | 1.6 | 0.00 | 0.71 | 0.03 | 99 | 1028.6 |
| 20260509173603 | 11 | 137 | 0.0 | 1.6 | 0.00 | 0.81 | 0.03 | 99 | 1028.6 |
| 20260509172703 | 11 | 0 | 0.0 | 0.0 | 0.00 | 0.89 | 0.03 | 99 | 1028.5 |
| 20260509171824 | 11 | 0 | 0.0 | 0.0 | 0.00 | 0.91 | 0.03 | 99 | 1028.6 |
| 20260509170903 | 11 | 0 | 0.0 | 0.0 | 0.00 | 0.97 | 0.03 | 99 | 1028.6 |
| 20260509170003 | 11 | 0 | 0.0 | 0.0 | 0.00 | 1.07 | 0.03 | 99 | 1028.4 |
| 20260509165403 | 11 | 0 | 0.0 | 0.0 | 0.00 | 1.12 | 0.03 | 99 | 1028.6 |
| 20260509164503 | 11 | 0 | 0.0 | 0.0 | 0.00 | 1.17 | 0.03 | 99 | 1028.8 |
| 20260509163624 | 11 | 0 | 0.0 | 0.0 | 0.00 | 1.19 | 0.03 | 99 | 1028.4 |
| 20260509162703 | 11 | 0 | 0.0 | 0.0 | 0.00 | 1.19 | 0.03 | 99 | 1028.7 |
| 20260509161824 | 11 | 0 | 0.0 | 0.0 | 0.00 | 1.22 | 0.03 | 99 | 1028.5 |
| 20260509160903 | 11 | 0 | 0.0 | 0.0 | 0.00 | 1.22 | 0.03 | 99 | 1029.1 |
| 20260509160003 | 11 | 0 | 0.0 | 0.0 | 0.00 | 1.24 | 0.03 | 99 | 1028.8 |
| 20260509155403 | 11 | 0 | 0.0 | 0.0 | 0.03 | 1.27 | 0.03 | 99 | 1028.7 |
| 20260509154504 | 11 | 0 | 0.0 | 0.0 | 0.03 | 1.27 | 0.03 | 99 | 1028.5 |
| 20260509153603 | 12 | 0 | 0.0 | 0.0 | 0.03 | 1.27 | 0.03 | 99 | 1028.7 |
| 20260509152703 | 12 | 0 | 0.0 | 0.0 | 0.03 | 1.27 | 0.03 | 99 | 1028.8 |
| 20260509151824 | 12 | 154 | 0.0 | 1.6 | 0.03 | 1.27 | 0.03 | 99 | 1029.0 |
| 20260509150924 | 12 | 0 | 0.0 | 0.0 | 0.03 | 1.27 | 0.03 | 99 | 1028.7 |
| 20260509150004 | 12 | 0 | 0.0 | 0.0 | 0.03 | 1.27 | 0.03 | 99 | 1029.0 |
| 20260509145403 | 12 | 0 | 0.0 | 0.0 | 0.00 | 1.24 | 0.00 | 99 | 1029.0 |
| 20260509144503 | 12 | 0 | 0.0 | 0.0 | 0.00 | 1.24 | 0.00 | 99 | 1028.8 |
| 20260509143603 | 12 | 0 | 0.0 | 0.0 | 0.00 | 1.24 | 0.00 | 99 | 1028.8 |
| 20260509142724 | 11 | 0 | 0.0 | 0.0 | 0.00 | 1.24 | 0.00 | 99 | 1029.1 |
| 20260509141804 | 12 | 0 | 0.0 | 0.0 | 0.00 | 1.24 | 0.00 | 99 | 1029.0 |
| 20260509140904 | 12 | 0 | 0.0 | 0.0 | 0.00 | 1.24 | 0.00 | 99 | 1028.8 |
| 20260509140005 | 12 | 0 | 0.0 | 0.0 | 0.00 | 1.24 | 0.00 | 99 | 1029.4 |
| 20260509135404 | 12 | 0 | 0.0 | 0.0 | 0.00 | 1.24 | 1.24 | 99 | 1029.2 |
| 20260509134504 | 12 | 0 | 0.0 | 0.0 | 0.00 | 1.24 | 1.24 | 99 | 1029.0 |
| 20260509133625 | 12 | 0 | 0.0 | 0.0 | 0.00 | 1.24 | 1.24 | 99 | 1028.8 |
| 20260509132725 | 12 | 0 | 0.0 | 0.0 | 0.00 | 1.24 | 1.24 | 99 | 1028.6 |
| 20260509131804 | 12 | 0 | 0.0 | 0.0 | 0.00 | 1.24 | 1.24 | 99 | 1028.7 |
| 20260509130904 | 12 | 0 | 0.0 | 0.0 | 0.00 | 1.27 | 1.24 | 99 | 1029.0 |
| 20260509130004 | 12 | 278 | 0.0 | 1.6 | 0.00 | 1.27 | 1.24 | 99 | 1028.7 |
| 20260509125425 | 12 | 245 | 0.0 | 3.2 | 0.00 | 1.27 | 1.24 | 99 | 1028.7 |
| 20260509124504 | 12 | 237 | 0.0 | 3.2 | 0.00 | 1.27 | 1.24 | 99 | 1028.8 |
| 20260509123604 | 12 | 175 | 0.0 | 4.8 | 0.00 | 1.27 | 1.24 | 99 | 1028.8 |
| 20260509122725 | 11 | 169 | 1.6 | 4.8 | 0.00 | 1.27 | 1.24 | 99 | 1028.8 |
| 20260509121804 | 11 | 217 | 0.0 | 3.2 | 0.00 | 1.30 | 1.24 | 99 | 1029.2 |
| 20260509120904 | 12 | 0 | 0.0 | 0.0 | 0.00 | 1.30 | 1.24 | 99 | 1028.8 |
| 20260509120004 | 12 | 0 | 0.0 | 0.0 | 0.00 | 1.30 | 1.24 | 99 | 1029.0 |
| 20260509115404 | 12 | 0 | 0.0 | 0.0 | 0.00 | 1.30 | 1.24 | 99 | 1029.1 |
| 20260509114504 | 12 | 0 | 0.0 | 0.0 | 0.00 | 1.30 | 1.24 | 99 | 1028.7 |
| 20260509113625 | 12 | 0 | 0.0 | 0.0 | 0.00 | 1.30 | 1.24 | 99 | 1028.7 |
| 20260509112704 | 12 | 0 | 0.0 | 0.0 | 0.00 | 1.30 | 1.24 | 99 | 1028.6 |
| 20260509111825 | 12 | 0 | 0.0 | 0.0 | 0.00 | 1.30 | 1.24 | 99 | 1028.5 |
| 20260509110904 | 12 | 0 | 0.0 | 0.0 | 0.00 | 1.30 | 1.24 | 99 | 1028.7 |
| 20260509110004 | 12 | 0 | 0.0 | 0.0 | 0.00 | 1.30 | 1.24 | 99 | 1028.5 |
| 20260509105404 | 12 | 0 | 0.0 | 0.0 | 0.00 | 1.30 | 1.24 | 99 | 1028.6 |
| 20260509104504 | 12 | 0 | 0.0 | 0.0 | 0.00 | 1.32 | 1.24 | 99 | 1028.6 |
| 20260509103604 | 12 | 0 | 0.0 | 0.0 | 0.00 | 1.32 | 1.24 | 99 | 1028.5 |
| 20260509102704 | 12 | 0 | 0.0 | 0.0 | 0.00 | 1.32 | 1.24 | 99 | 1028.6 |
| 20260509101804 | 12 | 0 | 0.0 | 0.0 | 0.00 | 1.32 | 1.24 | 99 | 1028.6 |
| 20260509100925 | 12 | 0 | 0.0 | 0.0 | 0.00 | 1.32 | 1.24 | 99 | 1028.6 |
| 20260509095422 | 12 | 0 | 0.0 | 0.0 | 0.00 | 1.35 | 1.24 | 99 | 1028.6 |
| 20260509094504 | 12 | 0 | 0.0 | 0.0 | 0.00 | 1.35 | 1.24 | 99 | 1028.5 |
| 20260509093604 | 12 | 0 | 0.0 | 0.0 | 0.00 | 1.35 | 1.24 | 99 | 1028.5 |
| 20260509092704 | 12 | 0 | 0.0 | 0.0 | 0.00 | 1.35 | 1.24 | 99 | 1028.6 |
| 20260509091804 | 12 | 0 | 0.0 | 0.0 | 0.00 | 1.35 | 1.24 | 99 | 1028.4 |
| 20260509090904 | 12 | 0 | 0.0 | 0.0 | 0.00 | 1.35 | 1.24 | 99 | 1028.3 |
| 20260509090004 | 12 | 163 | 0.0 | 1.6 | 0.00 | 1.35 | 1.24 | 99 | 1028.3 |
| 20260509085403 | 12 | 163 | 0.0 | 1.6 | 0.00 | 1.35 | 1.24 | 98 | 1028.2 |
| 20260509084525 | 12 | 0 | 0.0 | 0.0 | 0.00 | 1.35 | 1.24 | 98 | 1028.1 |
| 20260509083624 | 12 | 0 | 0.0 | 0.0 | 0.00 | 1.37 | 1.24 | 98 | 1028.2 |
| 20260509082724 | 12 | 0 | 0.0 | 0.0 | 0.00 | 1.37 | 1.24 | 98 | 1027.8 |
| 20260509081804 | 12 | 0 | 0.0 | 0.0 | 0.00 | 1.37 | 1.24 | 98 | 1028.0 |
| 20260509080903 | 12 | 0 | 0.0 | 0.0 | 0.00 | 1.37 | 1.24 | 98 | 1027.9 |
| 20260509080004 | 13 | 177 | 0.0 | 1.6 | 0.00 | 1.37 | 1.24 | 97 | 1027.8 |
| 20260509075404 | 13 | 180 | 0.0 | 1.6 | 0.00 | 1.37 | 1.24 | 97 | 1027.8 |
| 20260509074524 | 13 | 196 | 0.0 | 1.6 | 0.00 | 1.37 | 1.24 | 97 | 1027.7 |
| 20260509073604 | 13 | 222 | 0.0 | 3.2 | 0.00 | 1.37 | 1.24 | 97 | 1027.6 |
| 20260509072724 | 13 | 218 | 0.0 | 3.2 | 0.00 | 1.37 | 1.24 | 96 | 1027.4 |
| 20260509071804 | 13 | 178 | 0.0 | 1.6 | 0.00 | 1.37 | 1.24 | 96 | 1027.4 |
| 20260509070924 | 13 | 195 | 0.0 | 3.2 | 0.00 | 1.37 | 1.24 | 96 | 1027.3 |
| 20260509070004 | 13 | 211 | 0.0 | 1.6 | 0.00 | 1.37 | 1.24 | 95 | 1027.3 |
| 20260509065403 | 13 | 187 | 0.0 | 1.6 | 0.00 | 1.37 | 1.24 | 95 | 1027.2 |
| 20260509064504 | 13 | 203 | 0.0 | 3.2 | 0.00 | 1.37 | 1.24 | 94 | 1027.3 |
| 20260509063604 | 13 | 211 | 0.0 | 3.2 | 0.00 | 1.37 | 1.24 | 93 | 1027.3 |
| 20260509062724 | 14 | 210 | 0.0 | 1.6 | 0.00 | 1.37 | 1.24 | 92 | 1027.1 |
| 20260509061804 | 14 | 222 | 0.0 | 4.8 | 0.00 | 1.37 | 1.24 | 92 | 1027.0 |
| 20260509060903 | 14 | 215 | 0.0 | 1.6 | 0.00 | 1.37 | 1.24 | 92 | 1027.0 |
| 20260509060024 | 14 | 192 | 0.0 | 4.8 | 0.00 | 1.37 | 1.24 | 92 | 1027.0 |
| 20260509055403 | 14 | 204 | 0.0 | 3.2 | 0.00 | 1.37 | 1.24 | 92 | 1027.1 |
| 20260509054504 | 14 | 182 | 0.0 | 3.2 | 0.00 | 1.37 | 1.24 | 92 | 1027.0 |
| 20260509053604 | 14 | 193 | 0.0 | 3.2 | 0.00 | 1.37 | 1.24 | 91 | 1026.9 |
| 20260509052724 | 14 | 199 | 0.0 | 1.6 | 0.00 | 1.37 | 1.24 | 92 | 1026.7 |
| 20260509051803 | 14 | 198 | 0.0 | 4.8 | 0.00 | 1.37 | 1.24 | 92 | 1026.9 |
| 20260509050924 | 14 | 234 | 0.0 | 3.2 | 0.00 | 1.37 | 1.24 | 92 | 1026.8 |
| 20260509050003 | 14 | 211 | 0.0 | 3.2 | 0.00 | 1.37 | 1.24 | 92 | 1027.0 |
| 20260509045403 | 15 | 172 | 0.0 | 3.2 | 0.00 | 1.37 | 1.24 | 91 | 1027.0 |
| 20260509044504 | 15 | 265 | 0.0 | 4.8 | 0.00 | 1.37 | 1.24 | 91 | 1026.9 |
| 20260509043603 | 15 | 270 | 0.0 | 3.2 | 0.00 | 1.37 | 1.24 | 92 | 1026.9 |
| 20260509042703 | 15 | 206 | 0.0 | 3.2 | 0.00 | 1.40 | 1.24 | 92 | 1026.9 |
| 20260509041803 | 15 | 139 | 0.0 | 4.8 | 0.00 | 1.42 | 1.24 | 91 | 1027.1 |
| 20260509040903 | 15 | 177 | 0.0 | 3.2 | 0.00 | 1.42 | 1.24 | 92 | 1027.1 |
| 20260509040004 | 14 | 256 | 0.0 | 4.8 | 0.00 | 1.42 | 1.24 | 92 | 1027.0 |
| 20260509035403 | 15 | 288 | 0.0 | 4.8 | 0.00 | 1.42 | 1.24 | 92 | 1026.9 |
| 20260509034503 | 14 | 358 | 0.0 | 1.6 | 0.00 | 1.42 | 1.24 | 93 | 1026.9 |